TimeCST,TemperatureF,Dew PointF,Humidity,Sea Level PressureIn,VisibilityMPH,Wind Direction,Wind SpeedMPH,Gust SpeedMPH,PrecipitationIn,Events,Conditions,WindDirDegrees,DateUTC
12:15 AM,15.1,7.9,73,30.08,10.0,Calm,Calm,-,N/A,,Clear,0,2013-01-05 06:15:00
12:35 AM,13.1,6.8,76,30.08,10.0,Calm,Calm,-,N/A,,Clear,0,2013-01-05 06:35:00
12:55 AM,14.9,9.0,77,30.07,10.0,Calm,Calm,-,N/A,,Clear,0,2013-01-05 06:55:00
1:15 AM,12.9,7.5,79,30.07,7.0,Calm,Calm,-,N/A,,Clear,0,2013-01-05 07:15:00
1:35 AM,14.9,10.2,82,30.05,10.0,South,4.6,-,N/A,,Clear,170,2013-01-05 07:35:00
1:55 AM,13.6,6.8,74,30.05,10.0,South,4.6,-,N/A,,Clear,170,2013-01-05 07:55:00
2:15 AM,16.7,10.6,77,30.05,10.0,South,9.2,-,N/A,,Clear,170,2013-01-05 08:15:00
2:35 AM,13.6,7.3,76,30.04,10.0,Calm,Calm,-,N/A,,Clear,0,2013-01-05 08:35:00
2:55 AM,15.8,9.1,75,30.05,10.0,South,4.6,-,N/A,,Clear,180,2013-01-05 08:55:00
3:15 AM,13.1,7.0,77,30.03,10.0,Calm,Calm,-,N/A,,Clear,0,2013-01-05 09:15:00
3:35 AM,13.8,7.9,77,30.03,10.0,Calm,Calm,-,N/A,,Clear,0,2013-01-05 09:35:00
3:55 AM,14.4,7.9,75,30.03,10.0,Calm,Calm,-,N/A,,Clear,0,2013-01-05 09:55:00
4:15 AM,14.5,8.1,75,30.02,10.0,Calm,Calm,-,N/A,,Clear,0,2013-01-05 10:15:00
4:35 AM,12.7,6.3,75,30.01,10.0,Calm,Calm,-,N/A,,Clear,0,2013-01-05 10:35:00
4:55 AM,14.0,6.8,73,30.01,10.0,Calm,Calm,-,N/A,,Clear,0,2013-01-05 10:55:00
5:15 AM,12.9,6.6,76,30.00,10.0,South,5.8,-,N/A,,Clear,170,2013-01-05 11:15:00
5:55 AM,13.1,5.9,73,29.99,10.0,SW,3.5,-,N/A,,Clear,230,2013-01-05 11:55:00
6:15 AM,12.7,7.3,79,29.99,10.0,Calm,Calm,-,N/A,,Clear,0,2013-01-05 12:15:00
6:35 AM,11.8,4.6,73,29.99,10.0,South,4.6,-,N/A,,Clear,170,2013-01-05 12:35:00
6:55 AM,15.6,8.8,74,29.99,10.0,South,6.9,-,N/A,,Clear,170,2013-01-05 12:55:00
7:15 AM,11.3,5.2,76,29.98,10.0,Calm,Calm,-,N/A,,Clear,0,2013-01-05 13:15:00
7:35 AM,11.3,4.3,73,29.98,10.0,Calm,Calm,-,N/A,,Clear,0,2013-01-05 13:35:00
7:55 AM,12.6,7.3,80,29.98,10.0,Calm,Calm,-,N/A,,Clear,0,2013-01-05 13:55:00
8:15 AM,9.9,3.0,74,29.99,10.0,West,3.5,-,N/A,,Clear,270,2013-01-05 14:15:00
8:35 AM,16.2,10.2,77,29.98,10.0,South,4.6,-,N/A,,Clear,190,2013-01-05 14:35:00
8:55 AM,17.2,10.4,75,29.97,10.0,SSE,5.8,-,N/A,,Clear,160,2013-01-05 14:55:00
9:15 AM,17.8,10.2,72,29.99,10.0,South,6.9,-,N/A,,Clear,190,2013-01-05 15:15:00
9:55 AM,19.8,11.7,71,30.00,10.0,SSW,4.6,-,N/A,,Clear,210,2013-01-05 15:55:00
10:15 AM,20.8,12.2,69,29.99,10.0,SSW,8.1,-,N/A,,Clear,210,2013-01-05 16:15:00
10:55 AM,24.1,13.1,63,29.98,10.0,SW,6.9,-,N/A,,Clear,220,2013-01-05 16:55:00
11:15 AM,25.0,13.5,62,29.98,10.0,WSW,9.2,-,N/A,,Clear,250,2013-01-05 17:15:00
11:35 AM,24.8,14.0,64,29.97,10.0,SW,12.7,-,N/A,,Clear,230,2013-01-05 17:35:00
11:55 AM,25.2,14.0,63,29.96,10.0,WSW,11.5,-,N/A,,Clear,250,2013-01-05 17:55:00
12:15 PM,24.8,14.0,64,29.96,10.0,SW,10.4,-,N/A,,Clear,230,2013-01-05 18:15:00
12:35 PM,25.3,14.0,62,29.95,10.0,WSW,11.5,-,N/A,,Clear,250,2013-01-05 18:35:00
12:55 PM,25.5,14.4,63,29.94,10.0,WSW,8.1,-,N/A,,Clear,250,2013-01-05 18:55:00
1:15 PM,26.2,15.1,63,29.93,10.0,WSW,12.7,-,N/A,,Clear,250,2013-01-05 19:15:00
1:35 PM,26.6,15.1,62,29.92,10.0,WSW,8.1,-,N/A,,Clear,240,2013-01-05 19:35:00
1:55 PM,26.6,15.1,62,29.92,10.0,West,9.2,-,N/A,,Clear,260,2013-01-05 19:55:00
2:15 PM,27.3,15.4,61,29.92,10.0,West,9.2,-,N/A,,Clear,260,2013-01-05 20:15:00
2:35 PM,28.2,15.8,60,29.92,10.0,West,9.2,-,N/A,,Clear,260,2013-01-05 20:35:00
2:55 PM,28.4,16.2,60,29.94,10.0,WSW,11.5,-,N/A,,Clear,250,2013-01-05 20:55:00
3:15 PM,28.9,16.2,59,29.94,10.0,West,8.1,-,N/A,,Clear,260,2013-01-05 21:15:00
3:35 PM,29.8,16.9,59,29.95,10.0,West,10.4,-,N/A,,Clear,280,2013-01-05 21:35:00
3:55 PM,30.0,17.8,60,29.96,10.0,West,6.9,-,N/A,,Clear,280,2013-01-05 21:55:00
4:15 PM,30.2,18.7,62,29.97,10.0,NW,10.4,17.3,N/A,,Clear,310,2013-01-05 22:15:00
4:55 PM,29.8,18.5,63,29.98,10.0,NW,10.4,18.4,N/A,,Mostly Cloudy,310,2013-01-05 22:55:00
5:15 PM,29.7,19.0,65,29.98,10.0,NW,8.1,-,N/A,,Overcast,310,2013-01-05 23:15:00
5:35 PM,29.3,19.4,67,29.99,10.0,NW,11.5,19.6,N/A,,Overcast,310,2013-01-05 23:35:00
5:55 PM,29.3,19.2,66,30.00,10.0,NW,19.6,28.8,N/A,,Overcast,310,2013-01-05 23:55:00
6:15 PM,28.2,16.7,62,30.01,10.0,NW,16.1,19.6,N/A,,Overcast,310,2013-01-06 00:15:00
6:35 PM,27.3,16.3,63,30.02,10.0,WNW,20.7,31.1,N/A,,Overcast,300,2013-01-06 00:35:00
6:55 PM,26.6,16.2,65,30.03,10.0,WNW,15.0,23.0,N/A,,Overcast,300,2013-01-06 00:55:00
7:15 PM,26.2,16.2,66,30.04,10.0,WNW,12.7,24.2,N/A,,Overcast,300,2013-01-06 01:15:00
7:35 PM,25.7,16.2,67,30.05,7.0,NW,12.7,25.3,N/A,,Overcast,320,2013-01-06 01:35:00
7:55 PM,24.8,15.8,69,30.06,7.0,NW,16.1,21.9,N/A,,Overcast,310,2013-01-06 01:55:00
8:15 PM,24.3,15.4,69,30.06,7.0,WNW,13.8,21.9,N/A,,Overcast,300,2013-01-06 02:15:00
8:35 PM,23.5,15.1,70,30.07,5.0,WNW,15.0,24.2,N/A,,Haze,300,2013-01-06 02:35:00
8:55 PM,23.0,13.6,67,30.08,7.0,WNW,15.0,25.3,N/A,,Overcast,300,2013-01-06 02:55:00
9:15 PM,22.5,14.4,71,30.08,5.0,NW,13.8,18.4,N/A,,Haze,310,2013-01-06 03:15:00
9:35 PM,22.1,13.6,70,30.10,7.0,NW,11.5,21.9,N/A,,Overcast,310,2013-01-06 03:35:00
9:55 PM,21.6,12.7,69,30.11,10.0,NW,15.0,20.7,N/A,,Overcast,320,2013-01-06 03:55:00
10:15 PM,20.7,12.6,71,30.12,2.5,NW,13.8,17.3,N/A,Snow,Light Snow,310,2013-01-06 04:15:00
10:35 PM,19.4,11.3,71,30.13,7.0,NNW,15.0,23.0,N/A,,Overcast,330,2013-01-06 04:35:00
10:55 PM,19.2,11.3,71,30.14,7.0,NNW,11.5,16.1,N/A,,Overcast,330,2013-01-06 04:55:00
11:15 PM,19.4,11.7,72,30.14,10.0,NW,9.2,-,N/A,,Overcast,320,2013-01-06 05:15:00
11:35 PM,19.2,11.8,73,30.14,10.0,NNW,8.1,-,N/A,,Scattered Clouds,330,2013-01-06 05:35:00
11:55 PM,19.2,12.0,74,30.14,10.0,NW,6.9,-,N/A,,Clear,310,2013-01-06 05:55:00